Lexington Weather

Lexington, Massachusetts, USA

79°F
8/3/2020 8:39am 
  • Lexington Conditions: Few Clouds
  • Temperature: 78.8°F / 26.0°CWarmer 1.8°F than last hour.
  • Dew Point: 71.8°FDecreased 1.8°Fsince last hour.
  • Relative Humidity: 79%Decreased 10.0% since last hour.
  • Wind: Wind from W W 7 mph, 10-min avg: 2 mph, gust: 10 mph
  • Barometer: 29.86 in Steady
  • Visibility: 10 miles
  • Rain Today: 0.00 in
  •   

Regional Weather Roundup
for Boston / Norton, MA

        
000
ASUS41 KBOX 020204
RWRBOX

REGIONAL WEATHER ROUNDUP
NATIONAL WEATHER SERVICE BOSTON/NORTON MA
1000 PM EDT SAT AUG 01 2020

NOTE:  "FAIR" INDICATES FEW OR NO CLOUDS BELOW 12,000 FEET WITH NO 
SIGNIFICANT WEATHER AND/OR OBSTRUCTIONS TO VISIBILITY.

MAZALL-020300-
EASTERN MASSACHUSETTS
  
CITY           SKY/WX    TMP DP  RH WIND       PRES   REMARKS
BOSTON         PTCLDY    72  64  76 SE6       29.99R                  
BEVERLY        CLEAR     73  65  75 S7        29.98R                  
LAWRENCE       CLEAR     74  62  66 VRB5      30.00R                  
BEDFORD        PTCLDY    77  64  64 S6        29.97R                  
BLUE HILL      NOT AVBL                                               
NORWOOD        PTCLDY    75  67  76 S6        29.98R                  
MARSHFIELD     PTCLDY    73  66  78 S3        29.99S                  
PLYMOUTH       PTCLDY    74  63  68 S3        30.01R                  
TAUNTON        PTCLDY    74  66  76 SE5       30.00R                  
NEW BEDFORD    PTCLDY    74  69  85 S6        30.00R                  
$$

MAZALL-020300-
CAPE COD AND THE ISLANDS
  
CITY           SKY/WX    TMP DP  RH WIND       PRES   REMARKS
FALMOUTH       CLEAR     72  66  83 SW7       30.02R                  
HYANNIS        CLEAR     76  66  71 SW7       30.00R                  
CHATHAM        CLEAR     74  64  71 SW7       30.02R                  
PROVINCETOWN   CLEAR     74  69  85 S9        30.01R                  
NANTUCKET      CLEAR     70  65  84 SW7       30.02R                  
MARTHAS VNYRD  PTCLDY    70  67  90 S5        30.02R                  
$$
 
MAZALL-020300-
CENTRAL AND WESTERN MASSACHUSETTS
  
CITY           SKY/WX    TMP DP  RH WIND       PRES   REMARKS
WORCESTER      MOCLDY    76  65  68 S5        30.02R                  
FITCHBURG      PTCLDY    75  63  66 CALM      29.99R                  
ORANGE         PTCLDY    73  66  78 CALM      30.00R                  
SPRINGFIELD    MOCLDY    79  62  55 S6        29.96R                  
WESTFIELD      MOCLDY    81  61  50 S10       29.96R                  
NORTH ADAMS    MOCLDY    71  61  70 CALM      29.99R                  
PITTSFIELD     MOCLDY    69  63  81 CALM      30.00R                  
$$
 
RIZALL-020300-
RHODE ISLAND
  
CITY           SKY/WX    TMP DP  RH WIND       PRES   REMARKS
PROVIDENCE     MOCLDY    76  71  85 S9        30.00R                  
NEWPORT        MOCLDY    75  71  87 S7        30.01R                  
BLOCK ISLAND   MOCLDY    74  71  91 SW7       30.01R                  
SMITHFIELD     MOCLDY    74  71  91 VRB3      30.01R                  
WESTERLY       MOCLDY    75  68  78 SW7       30.00R                  
$$
 
CTZALL-020300-
CONNECTICUT
  
CITY           SKY/WX    TMP DP  RH WIND       PRES   REMARKS
BRADLEY INTL   MOCLDY    81  60  48 S9        29.97R                  
HARTFORD       MOCLDY    81  64  56 S7        29.97R                  
BRIDGEPORT     PTCLDY    78  70  76 SW6       29.98R                  
DANBURY        PTCLDY    76  64  66 S8        30.00R                  
GROTON         CLOUDY    74  70  87 SW8       29.99R                  
NEW HAVEN      PTCLDY    80  72  76 SW5       29.99R                  
CHESTER        NOT AVBL                                               
MERIDEN        MOCLDY    78  65  63 VRB5      29.99R                  
WILLIMANTIC    CLOUDY    79  61  53 S5        29.99R                  
OXFORD         MOCLDY    75  65  70 S6        30.02R                  
$$

MEZ002-015-021-024-NHZ003-005-008-011-012-014-VTZ005-008-020300-
NORTHERN NEW ENGLAND
  
CITY           SKY/WX    TMP DP  RH WIND       PRES   REMARKS
PORTLAND ME    PTCLDY    74  62  66 SW7       29.98R                  
BANGOR ME      PTCLDY    73  64  73 S5        29.95R                  
CONCORD NH     CLEAR     74  64  71 CALM      29.98R                  
MANCHESTER NH  MOCLDY    77  62  59 SE6       29.97R                  
NASHUA NH      PTCLDY    77  63  61 SE3       29.99R                  
PORTSMOUTH NH  MOCLDY    72  62  70 S5        29.97R                  
JAFFREY NH     PTCLDY    68  62  81 CALM      30.02R                  
KEENE NH       PTCLDY    69  66  90 CALM      29.99R                  
BURLINGTON VT  PTCLDY    75  62  64 E5        29.95R                  
MT. WASHINGTON PTCLDY    54  50  87 SE5         N/A                   
$$

NYZ052-076-020300-
EASTERN NEW YORK
  
CITY           SKY/WX    TMP DP  RH WIND       PRES   REMARKS
ALBANY         MOCLDY    74  62  66 CALM      29.95R                  
NEW YORK CITY  MOCLDY    81  69  67 S13       29.97R                  
$$
 
ANZALL-020300-
MARINE OBSERVATIONS
  
STATION/POSITION TIME  TEMP    WIND        PRES    VSBY  WAVE
                       AIR SEA DIR/SP/G                  HT/PER
                 (UTC) (F)     (DEG/KT/KT) (MB)    (MI)  (FT/S)
BOSTON BUOY      0150   71 71  150/  8/ 10 1014.0R         2/ 9
BUZZARDS BAY     0100          170/ 13/ 13 1016.6R
NANTUCKET SOUND  0140      77  210/ 12/ 14   N/A
MASS BAY-STELLWA 0104   74     190/ 10/ 10 1012.6R  1 7/8  1/ 3
ISLE OF SHOALS   0100   73     190/ 12/ 13 1014.2R
S OF BLOCK IS    0126      73                N/A           3/12
$$

......................KEY.........................
  SKY/WX - SKY CONDITION/PRESENT WEATHER
  TMP    - TEMPERATURE IN FAHRENHEIT
  DWPT   - DEWPOINT IN FAHRENHEIT
  RH     - RELATIVE HUMIDITY IN PERCENT
  WIND   - DIRECTION AND SPEED IN MPH
  PRES   - MEAN SEA LEVEL PRESSURE IN INCHES OF HG
  WCI    - WIND CHILL INDEX
  VSB    - VISIBILITY IN MILES
  HX     - HEAT INDEX
  TC     - TEMPERATURE IN CELSIUS
  VRB    - VARIABLE WIND DIRECTION
  N/A    - NOT AVAILABLE
  
      

Other recent Regional Weather Roundups

Mon Aug 3, 8:04am

Mon Aug 3, 7:04am

Mon Aug 3, 6:04am

Mon Aug 3, 5:04am

Mon Aug 3, 4:04am

Mon Aug 3, 3:04am

Mon Aug 3, 2:04am

Mon Aug 3, 1:04am

Mon Aug 3, 12:05am

Sun Aug 2, 11:04pm

Sun Aug 2, 10:04pm

Sun Aug 2, 9:04pm

Sun Aug 2, 8:04pm

Sun Aug 2, 7:04pm

Sun Aug 2, 6:04pm

Sun Aug 2, 5:04pm

Sun Aug 2, 4:05pm

Sun Aug 2, 3:04pm

Sun Aug 2, 2:05pm

Sun Aug 2, 1:04pm

Sun Aug 2, 12:04pm

Sun Aug 2, 11:04am

Sun Aug 2, 10:04am

Sun Aug 2, 9:05am

Sun Aug 2, 8:05am

Sun Aug 2, 7:04am

Sun Aug 2, 6:04am

Sun Aug 2, 5:04am

Sun Aug 2, 4:05am

Sun Aug 2, 3:04am

Sun Aug 2, 2:04am

Sun Aug 2, 1:04am

Sun Aug 2, 12:05am

Sat Aug 1, 11:04pm

Sat Aug 1, 9:04pm

Sat Aug 1, 8:05pm

Sat Aug 1, 7:04pm

Sat Aug 1, 6:04pm

Sat Aug 1, 5:05pm

Sat Aug 1, 4:05pm

Sat Aug 1, 3:04pm

Sat Aug 1, 2:04pm

Sat Aug 1, 1:04pm

Sat Aug 1, 12:04pm

Sat Aug 1, 11:05am

Sat Aug 1, 10:05am

Sat Aug 1, 9:04am

Sat Aug 1, 8:04am

Sat Aug 1, 7:04am

Sat Aug 1, 6:04am

Sat Aug 1, 5:04am

Sat Aug 1, 4:05am

Sat Aug 1, 3:04am

Sat Aug 1, 2:04am

Sat Aug 1, 1:04am

Sat Aug 1, 12:05am

Fri Jul 31, 11:05pm

Fri Jul 31, 10:04pm

Fri Jul 31, 9:04pm

Fri Jul 31, 8:05pm

Fri Jul 31, 7:05pm

Fri Jul 31, 6:04pm

Fri Jul 31, 5:04pm

Fri Jul 31, 4:05pm

Fri Jul 31, 3:04pm

Fri Jul 31, 2:05pm

Fri Jul 31, 1:04pm

Fri Jul 31, 12:04pm

Fri Jul 31, 11:04am

Fri Jul 31, 10:04am

Fri Jul 31, 9:04am

Fri Jul 31, 8:04am

Fri Jul 31, 7:04am

Fri Jul 31, 6:04am

Fri Jul 31, 5:04am

Fri Jul 31, 4:04am

Fri Jul 31, 3:04am

Fri Jul 31, 2:04am

Fri Jul 31, 1:05am

Fri Jul 31, 12:04am

Thu Jul 30, 11:04pm

Thu Jul 30, 10:04pm

Thu Jul 30, 9:04pm

Thu Jul 30, 8:04pm

Thu Jul 30, 7:05pm

Thu Jul 30, 6:04pm

Thu Jul 30, 5:04pm

Thu Jul 30, 4:05pm

Thu Jul 30, 3:04pm

Thu Jul 30, 2:05pm

Thu Jul 30, 1:04pm

Thu Jul 30, 12:04pm

Thu Jul 30, 11:04am

Thu Jul 30, 10:05am

Thu Jul 30, 9:04am

Thu Jul 30, 8:04am

Thu Jul 30, 7:04am

Thu Jul 30, 6:04am

Thu Jul 30, 5:04am

Thu Jul 30, 4:04am

Thu Jul 30, 3:04am

Thu Jul 30, 2:04am

Thu Jul 30, 1:04am

Thu Jul 30, 12:04am

Wed Jul 29, 11:04pm

Wed Jul 29, 10:04pm

Wed Jul 29, 9:04pm

Wed Jul 29, 8:04pm

Wed Jul 29, 7:05pm

Wed Jul 29, 6:05pm

Wed Jul 29, 5:04pm

Wed Jul 29, 4:04pm

Wed Jul 29, 3:04pm

Wed Jul 29, 2:04pm

Wed Jul 29, 1:05pm

Wed Jul 29, 12:05pm

Wed Jul 29, 11:04am

Wed Jul 29, 10:04am

Wed Jul 29, 9:04am

Wed Jul 29, 8:04am

Wed Jul 29, 7:04am

Wed Jul 29, 6:04am

Wed Jul 29, 5:04am

Wed Jul 29, 4:04am

Wed Jul 29, 3:04am

Wed Jul 29, 2:04am

Wed Jul 29, 1:04am

Wed Jul 29, 12:05am

Tue Jul 28, 11:05pm

Tue Jul 28, 10:05pm

Tue Jul 28, 9:04pm

Tue Jul 28, 8:04pm

Tue Jul 28, 7:04pm

Tue Jul 28, 6:04pm

Tue Jul 28, 5:04pm

Tue Jul 28, 4:05pm

Tue Jul 28, 3:05pm

Tue Jul 28, 2:04pm

Tue Jul 28, 1:05pm

Tue Jul 28, 12:04pm

Tue Jul 28, 11:04am

Tue Jul 28, 10:04am

Tue Jul 28, 9:04am

Tue Jul 28, 8:04am

Tue Jul 28, 7:04am

Tue Jul 28, 6:04am

Tue Jul 28, 5:04am

Tue Jul 28, 4:04am

Tue Jul 28, 3:04am

Tue Jul 28, 2:04am

Tue Jul 28, 1:04am

Tue Jul 28, 12:05am

Mon Jul 27, 11:04pm

Mon Jul 27, 10:05pm

Mon Jul 27, 9:05pm

Mon Jul 27, 8:04pm

Mon Jul 27, 7:04pm

Mon Jul 27, 6:05pm

Mon Jul 27, 5:05pm

Mon Jul 27, 4:04pm

Mon Jul 27, 3:04pm

Mon Jul 27, 2:04pm

Mon Jul 27, 1:04pm

Mon Jul 27, 12:04pm

Mon Jul 27, 11:04am

Mon Jul 27, 10:04am

Mon Jul 27, 9:04am

Meta data:

ID: 9f9dfd4b-b7ab-4840-84be-a5c2206a68f2
Link: https://api.weather.gov/products/9f9dfd4b-b7ab-4840-84be-a5c2206a68f2